�������l�o���
Date,Time,MP-1(��Sv/h),MP-2(��Sv/h),MP-3(��Sv/h),MP-4(��Sv/h),MP-5(��Sv/h),MP-6(��Sv/h),MP-7(��Sv/h),MP-8(��Sv/h),����,����(m/s),���J
2016/11/08,00:00,1.123,1.940,1.314,2.183,1.522,0.582,1.070,0.987,��,1.9,��
2016/11/08,00:10,1.118,1.944,1.313,2.183,1.521,0.584,1.070,0.986,��,1.4,��
2016/11/08,00:20,1.121,1.943,1.312,2.183,1.521,0.585,1.068,0.985,��,1.5,��
2016/11/08,00:30,1.122,1.942,1.313,2.182,1.522,0.582,1.069,0.985,���쐼,0.5,��
2016/11/08,00:40,1.121,1.941,1.309,2.185,1.517,0.583,1.070,0.986,-,CALM,��
2016/11/08,00:50,1.119,1.941,1.312,2.182,1.523,0.584,1.070,0.986,-,CALM,��
2016/11/08,01:00,1.119,1.941,1.311,2.180,1.522,0.583,1.070,0.986,���쐼,1.8,��
2016/11/08,01:10,1.121,1.943,1.312,2.181,1.522,0.584,1.069,0.984,���쐼,1.9,��
2016/11/08,01:20,1.121,1.942,1.312,2.183,1.521,0.583,1.070,0.987,���쐼,2.0,��
2016/11/08,01:30,1.120,1.941,1.312,2.183,1.522,0.584,1.071,0.987,�쐼,2.0,��
2016/11/08,01:40,1.119,1.942,1.311,2.180,1.519,0.583,1.070,0.986,�쐼,2.1,��
2016/11/08,01:50,1.120,1.940,1.313,2.181,1.520,0.583,1.069,0.986,���쐼,1.9,��
2016/11/08,02:00,1.120,1.943,1.313,2.180,1.520,0.582,1.069,0.984,���쐼,1.4,��
2016/11/08,02:10,1.121,1.941,1.311,2.181,1.522,0.583,1.072,0.986,���쐼,1.8,��
2016/11/08,02:20,1.118,1.940,1.313,2.180,1.520,0.584,1.070,0.985,���쐼,2.2,��
2016/11/08,02:30,1.120,1.941,1.310,2.183,1.519,0.583,1.070,0.985,���쐼,2.4,��
2016/11/08,02:40,1.120,1.943,1.309,2.179,1.519,0.583,1.071,0.986,���쐼,1.9,��
2016/11/08,02:50,1.120,1.939,1.313,2.183,1.524,0.582,1.070,0.984,���쐼,1.3,��
2016/11/08,03:00,1.119,1.937,1.313,2.182,1.520,0.583,1.070,0.985,�쐼,0.6,��
2016/11/08,03:10,1.118,1.941,1.310,2.182,1.521,0.584,1.071,0.987,���쐼,1.5,��
2016/11/08,03:20,1.118,1.941,1.310,2.184,1.520,0.581,1.072,0.986,�쐼,1.2,��
2016/11/08,03:30,1.120,1.941,1.312,2.182,1.521,0.582,1.070,0.985,��,0.8,��
2016/11/08,03:40,1.120,1.939,1.310,2.182,1.519,0.584,1.070,0.986,�쐼,0.6,��
2016/11/08,03:50,1.118,1.940,1.311,2.183,1.522,0.584,1.069,0.985,-,CALM,��
2016/11/08,04:00,1.121,1.942,1.311,2.183,1.520,0.584,1.070,0.985,��,0.7,��
2016/11/08,04:10,1.119,1.941,1.309,2.182,1.519,0.585,1.069,0.987,��,0.8,��
2016/11/08,04:20,1.121,1.940,1.311,2.181,1.518,0.584,1.071,0.985,�쐼,1.4,��
2016/11/08,04:30,1.120,1.939,1.311,2.179,1.521,0.584,1.070,0.986,�쐼,1.9,��
2016/11/08,04:40,1.120,1.940,1.312,2.182,1.521,0.583,1.070,0.985,��쐼,2.1,��
2016/11/08,04:50,1.120,1.939,1.310,2.181,1.519,0.583,1.068,0.985,��쐼,1.0,��
2016/11/08,05:00,1.121,1.942,1.312,2.183,1.520,0.583,1.070,0.984,��,1.0,��
2016/11/08,05:10,1.120,1.937,1.312,2.181,1.519,0.583,1.071,0.985,��,1.8,��
2016/11/08,05:20,1.119,1.939,1.311,2.179,1.519,0.583,1.071,0.987,��쐼,2.0,��
2016/11/08,05:30,1.118,1.940,1.310,2.178,1.519,0.584,1.071,0.984,��쐼,1.7,��
2016/11/08,05:40,1.123,1.939,1.311,2.181,1.520,0.583,1.069,0.986,��,1.6,��
2016/11/08,05:50,1.121,1.939,1.307,2.182,1.518,0.583,1.069,0.985,��쐼,1.9,��
2016/11/08,06:00,1.119,1.941,1.310,2.184,1.520,0.582,1.071,0.986,��쐼,2.7,��
2016/11/08,06:10,1.121,1.939,1.311,2.182,1.516,0.582,1.067,0.985,��,2.4,��
2016/11/08,06:20,1.120,1.938,1.310,2.181,1.517,0.584,1.070,0.986,��쐼,2.1,��
2016/11/08,06:30,1.119,1.937,1.309,2.183,1.520,0.583,1.070,0.985,��쐼,2.1,��
2016/11/08,06:40,1.121,1.939,1.309,2.180,1.521,0.583,1.070,0.987,��쐼,2.6,��
2016/11/08,06:50,1.121,1.938,1.308,2.181,1.517,0.583,1.071,0.986,��,3.3,��
2016/11/08,07:00,1.121,1.939,1.307,2.182,1.521,0.584,1.070,0.985,��,3.8,��
2016/11/08,07:10,1.123,1.939,1.309,2.182,1.520,0.584,1.074,0.986,��쐼,3.3,��
2016/11/08,07:20,1.121,1.942,1.311,2.184,1.521,0.583,1.072,0.986,��쐼,3.9,��
2016/11/08,07:30,1.122,1.938,1.309,2.185,1.519,0.584,1.071,0.986,��쐼,4.2,��
2016/11/08,07:40,1.125,1.940,1.302,2.182,1.520,0.583,1.071,0.986,��쐼,4.7,��
2016/11/08,07:50,1.121,1.943,1.307,2.184,1.519,0.582,1.071,0.988,��쐼,4.4,��
2016/11/08,08:00,1.124,1.941,1.307,2.183,1.518,0.583,1.074,0.986,��쐼,2.8,��
2016/11/08,08:10,1.124,1.940,1.307,2.187,1.518,0.586,1.074,0.987,��,3.8,��
2016/11/08,08:20,1.120,1.940,1.307,2.188,1.520,0.585,1.074,0.988,��,4.2,��
2016/11/08,08:30,1.124,1.941,1.307,2.185,1.521,0.586,1.073,0.987,��,6.3,��
2016/11/08,08:40,1.122,1.941,1.307,2.185,1.520,0.584,1.076,0.989,��,5.6,��
2016/11/08,08:50,1.124,1.945,1.307,2.186,1.523,0.586,1.072,0.988,��,6.6,��
2016/11/08,09:00,1.127,1.941,1.306,2.186,1.522,0.587,1.074,0.989,��,6.9,��
2016/11/08,09:10,1.125,1.943,1.311,2.187,1.528,0.587,1.074,0.988,��,6.3,��
2016/11/08,09:20,1.126,1.939,1.308,2.186,1.526,0.587,1.074,0.988,��쓌,5.0,��
2016/11/08,09:30,1.127,1.943,1.309,2.190,1.528,0.586,1.074,0.988,��쓌,5.3,��
2016/11/08,09:40,1.128,1.945,1.311,2.189,1.530,0.588,1.074,0.990,��쓌,6.4,��
2016/11/08,09:50,1.129,1.946,1.311,2.192,1.527,0.587,1.072,0.991,��쓌,8.2,��
2016/11/08,10:00,1.128,1.943,1.313,2.189,1.525,0.588,1.073,0.988,��쓌,7.7,��
2016/11/08,10:10,1.131,1.945,1.315,2.193,1.517,0.587,1.073,0.990,��쓌,8.0,��
2016/11/08,10:20,1.129,1.941,1.313,2.190,1.518,0.585,1.075,0.989,��쓌,8.9,��
2016/11/08,10:30,1.125,1.938,1.312,2.188,1.513,0.585,1.075,0.989,��쓌,8.5,��
2016/11/08,10:40,1.129,1.938,1.311,2.192,1.527,0.585,1.074,0.991,��쓌,8.8,��
2016/11/08,10:50,1.124,1.937,1.311,2.194,1.523,0.584,1.073,0.988,��쓌,8.8,��
2016/11/08,11:00,1.129,1.941,1.310,2.191,1.529,0.586,1.075,0.989,��쓌,9.4,��
2016/11/08,11:10,1.125,1.944,1.306,2.191,1.526,0.583,1.073,0.989,��,8.0,��
2016/11/08,11:20,1.128,1.945,1.306,2.193,1.525,0.587,1.076,0.989,��,6.1,��
2016/11/08,11:30,1.129,1.943,1.308,2.193,1.525,0.587,1.075,0.987,��,6.1,��
2016/11/08,11:40,1.128,1.945,1.311,2.192,1.525,0.588,1.074,0.989,��,6.7,��
2016/11/08,11:50,1.127,1.946,1.310,2.193,1.530,0.589,1.077,0.988,��쓌,8.8,��
2016/11/08,12:00,1.126,1.946,1.314,2.191,1.527,0.589,1.074,0.987,��,8.8,��
2016/11/08,12:10,1.127,1.944,1.314,2.193,1.531,0.589,1.073,0.989,��,8.0,��
2016/11/08,12:20,1.130,1.945,1.315,2.192,1.531,0.589,1.074,0.988,��,7.2,��
2016/11/08,12:30,1.129,1.947,1.315,2.194,1.526,0.590,1.075,0.989,��,5.2,��
2016/11/08,12:40,1.131,1.944,1.314,2.195,1.525,0.589,1.075,0.990,��,6.1,��
2016/11/08,12:50,1.133,1.948,1.315,2.194,1.529,0.590,1.075,0.989,��,6.4,��
2016/11/08,13:00,1.133,1.947,1.314,2.193,1.528,0.590,1.073,0.989,��,8.0,��
2016/11/08,13:10,1.131,1.944,1.316,2.193,1.529,0.589,1.075,0.990,��,7.7,��
2016/11/08,13:20,1.132,1.943,1.315,2.191,1.528,0.589,1.073,0.990,��,6.7,��
2016/11/08,13:30,1.132,1.947,1.315,2.195,1.528,0.591,1.076,0.988,��,7.2,��
2016/11/08,13:40,1.134,1.951,1.314,2.196,1.525,0.590,1.073,0.992,��,6.3,��
2016/11/08,13:50,1.133,1.948,1.312,2.190,1.525,0.592,1.075,0.992,��,7.4,��
2016/11/08,14:00,1.135,1.949,1.316,2.192,1.524,0.591,1.076,0.993,��,6.3,��
2016/11/08,14:10,1.134,1.951,1.312,2.194,1.528,0.588,1.076,0.991,��,5.8,��
2016/11/08,14:20,1.131,1.952,1.313,2.195,1.529,0.591,1.077,0.990,��,6.4,��
2016/11/08,14:30,1.132,1.949,1.317,2.198,1.530,0.592,1.077,0.990,��,6.3,��
2016/11/08,14:40,1.134,1.952,1.317,2.194,1.531,0.589,1.075,0.992,��,6.0,��
2016/11/08,14:50,1.136,1.950,1.319,2.195,1.531,0.592,1.076,0.990,��,6.4,��
2016/11/08,15:00,1.134,1.950,1.320,2.195,1.530,0.592,1.073,0.990,��,6.4,��
2016/11/08,15:10,1.133,1.951,1.324,2.195,1.529,0.592,1.073,0.990,��,5.8,��
2016/11/08,15:20,1.133,1.950,1.322,2.197,1.529,0.591,1.077,0.990,��,6.3,��
2016/11/08,15:30,1.133,1.952,1.318,2.193,1.531,0.591,1.076,0.991,��,6.3,��
2016/11/08,15:40,1.133,1.951,1.321,2.193,1.532,0.592,1.076,0.991,��,5.8,��
2016/11/08,15:50,1.135,1.950,1.320,2.193,1.532,0.592,1.075,0.991,��,4.9,��
2016/11/08,16:00,1.133,1.951,1.321,2.191,1.529,0.592,1.076,0.992,��,3.8,��
2016/11/08,16:10,1.133,1.951,1.321,2.192,1.531,0.593,1.074,0.990,��,4.9,��
2016/11/08,16:20,1.134,1.950,1.319,2.193,1.531,0.593,1.076,0.991,��,5.2,��
2016/11/08,16:30,1.133,1.952,1.319,2.192,1.532,0.592,1.077,0.993,��,6.0,��
2016/11/08,16:40,1.132,1.950,1.315,2.193,1.533,0.591,1.075,0.993,��,6.3,��
2016/11/08,16:50,1.132,1.954,1.318,2.192,1.531,0.591,1.077,0.990,��,5.5,��
2016/11/08,17:00,1.131,1.950,1.319,2.192,1.534,0.592,1.075,0.990,��,5.8,��
2016/11/08,17:10,1.133,1.952,1.319,2.193,1.533,0.591,1.078,0.990,��,5.6,��
2016/11/08,17:20,1.133,1.952,1.319,2.194,1.530,0.591,1.077,0.991,��,6.4,��
2016/11/08,17:30,1.133,1.952,1.320,2.191,1.530,0.590,1.077,0.990,��쐼,5.0,��
2016/11/08,17:40,1.134,1.950,1.317,2.193,1.531,0.592,1.077,0.990,��쐼,4.7,��
2016/11/08,17:50,1.132,1.949,1.320,2.193,1.532,0.591,1.076,0.990,��,6.0,��
2016/11/08,18:00,1.132,1.952,1.318,2.191,1.529,0.591,1.077,0.990,��,5.8,��
2016/11/08,18:10,1.130,1.954,1.316,2.192,1.531,0.591,1.076,0.990,��쐼,5.3,��
2016/11/08,18:20,1.132,1.949,1.319,2.194,1.529,0.591,1.076,0.990,��쐼,4.9,��
2016/11/08,18:30,1.133,1.952,1.317,2.194,1.532,0.591,1.074,0.992,�쐼,4.9,��
2016/11/08,18:40,1.132,1.951,1.319,2.192,1.531,0.591,1.076,0.992,�쐼,4.9,��
2016/11/08,18:50,1.132,1.950,1.318,2.193,1.528,0.591,1.076,0.991,��쐼,3.8,��
2016/11/08,19:00,1.131,1.955,1.316,2.195,1.531,0.591,1.077,0.990,�쐼,3.6,��
2016/11/08,19:10,1.132,1.950,1.320,2.194,1.532,0.591,1.076,0.991,�쐼,3.0,��
2016/11/08,19:20,1.132,1.953,1.317,2.192,1.531,0.591,1.077,0.989,��쐼,3.9,��
2016/11/08,19:30,1.132,1.951,1.318,2.193,1.534,0.590,1.076,0.990,�쐼,4.1,��
2016/11/08,19:40,1.131,1.953,1.318,2.194,1.531,0.592,1.076,0.991,��쐼,3.9,��
2016/11/08,19:50,1.130,1.955,1.317,2.193,1.534,0.589,1.078,0.990,��쐼,3.5,��
2016/11/08,20:00,1.131,1.952,1.321,2.194,1.533,0.589,1.078,0.990,��,1.3,��
2016/11/08,20:10,1.133,1.953,1.319,2.193,1.534,0.590,1.077,0.991,���k��,3.3,��
2016/11/08,20:20,1.132,1.949,1.319,2.193,1.531,0.591,1.076,0.990,��,5.8,��
2016/11/08,20:30,1.130,1.951,1.316,2.194,1.535,0.592,1.078,0.990,���k��,6.1,��
2016/11/08,20:40,1.130,1.953,1.319,2.194,1.530,0.590,1.076,0.991,���k��,5.5,��
2016/11/08,20:50,1.130,1.952,1.318,2.191,1.533,0.590,1.076,0.990,���k��,5.2,��
2016/11/08,21:00,1.132,1.953,1.320,2.193,1.531,0.588,1.076,0.991,��,5.8,��
2016/11/08,21:10,1.133,1.949,1.320,2.193,1.530,0.589,1.076,0.991,���k��,7.2,��
2016/11/08,21:20,1.134,1.952,1.318,2.192,1.533,0.590,1.075,0.992,���k��,7.1,��
2016/11/08,21:30,1.131,1.955,1.318,2.193,1.528,0.590,1.077,0.991,���k��,6.1,��
2016/11/08,21:40,1.134,1.951,1.318,2.192,1.528,0.589,1.077,0.991,���k��,8.0,��
2016/11/08,21:50,1.132,1.952,1.319,2.194,1.531,0.589,1.075,0.992,���k��,8.0,��
2016/11/08,22:00,1.133,1.954,1.321,2.194,1.531,0.590,1.076,0.990,���k��,7.8,��
2016/11/08,22:10,1.132,1.954,1.318,2.195,1.531,0.590,1.077,0.990,���k��,4.4,��
2016/11/08,22:20,1.131,1.954,1.318,2.192,1.532,0.590,1.077,0.991,���k��,4.1,��
2016/11/08,22:30,1.130,1.950,1.318,2.193,1.528,0.590,1.076,0.991,�k��,4.1,��
2016/11/08,22:40,1.132,1.949,1.318,2.194,1.533,0.588,1.077,0.993,�k��,3.1,��
2016/11/08,22:50,1.132,1.952,1.319,2.195,1.531,0.589,1.075,0.992,�k��,6.6,��
2016/11/08,23:00,1.130,1.951,1.320,2.194,1.533,0.591,1.076,0.991,�k��,5.5,��
2016/11/08,23:10,1.131,1.951,1.319,2.194,1.531,0.589,1.076,0.992,�k��,5.2,��
2016/11/08,23:20,1.130,1.953,1.315,2.196,1.531,0.591,1.077,0.991,�k��,4.4,�L
2016/11/08,23:30,1.133,1.951,1.316,2.198,1.533,0.592,1.075,0.991,�k��,8.0,�L
2016/11/08,23:40,1.132,1.953,1.323,2.200,1.533,0.593,1.078,0.990,�k��,5.8,�L
2016/11/08,23:50,1.133,1.955,1.322,2.199,1.535,0.594,1.077,0.991,�k��,6.0,��
